Miscellaneous Local Product
Issued by NWS Hastings, NE

Home | Current Version | Previous Version | Graphics & Text | Print | Product List | Glossary On
Versions: 1 2 3 4 5 6 7 8 9 10 11 12 13 14 15 16 17 18 19 20 21 22 23 24 25 26 27 28 29 30 31 32 33 34 35 36 37 38 39 40 41 42 43 44 45 46 47 48 49 50
000
AXUS43 KGID 271802
MISGRI

GID CWA HOURLY WEATHER ROUNDUP
NATIONAL WEATHER SERVICE HASTINGS NE
100 PM CDT TUE SEP 27 2016

NOTE: "FAIR" INDICATES FEW OR NO CLOUDS BELOW 12,000 FEET WITH NO
SIGNIFICANT WEATHER AND/OR OBSTRUCTIONS TO VISIBILITY.

...SOUTH CENTRAL NEBRASKA...

CITY           SKY/WX    TMP DP  RH WIND       PRES   REMARKS
GRAND ISLAND   SUNNY     76  44  32 NW6G18    30.02F
HASTINGS       SUNNY     76  43  30 NW7G16    30.03F
KEARNEY        SUNNY     77  41  27 NW8       30.03F
ORD            SUNNY     75  42  30 W8        30.00F
YORK           SUNNY     75  43  31 NW9G16    30.01F
AURORA         SUNNY     74  43  32 NW9       30.02F
LEXINGTON      SUNNY     76  42  30 SW3       30.05F
HOLDREGE       SUNNY     77  40  26 W8        30.04F
HEBRON         SUNNY     79  41  26 NW3       30.01F

...NEBRASKA PANHANDLE...

CITY           SKY/WX    TMP DP  RH WIND       PRES   REMARKS
CHADRON        SUNNY     76  43  30 W8        30.07F
ALLIANCE       SUNNY     77  39  25 NW7       30.10F
SCOTTSBLUFF    SUNNY     73  44  35 W8        30.13F
SIDNEY         SUNNY     77  42  28 NW7       30.15F

...WESTERN AND NORTH CENTRAL NEBRASKA...

CITY           SKY/WX    TMP DP  RH WIND       PRES   REMARKS
VALENTINE      SUNNY     77  42  28 W15       30.01F
AINSWORTH      SUNNY     74  45  34 W9        30.01F
ONEILL         SUNNY     75  38  25 NW14      30.00F
BROKEN BOW     SUNNY     77  42  28 W8        30.03F
IMPERIAL       MOSUNNY   77  41  27 SW12G18   30.10F
NORTH PLATTE   SUNNY     78  46  32 W12       30.06F
MCCOOK         SUNNY     75  45  34 SW6       30.08F HAZE

...EASTERN NEBRASKA...

CITY           SKY/WX    TMP DP  RH WIND       PRES   REMARKS
NORFOLK        SUNNY     74  40  29 W10G18    29.98F
SO SIOUX CITY  SUNNY     73  42  32 W16G23    29.94F
TEKAMAH        SUNNY     75  39  27 NW15G21   29.96F
COLUMBUS       SUNNY     75  43  31 W10       30.00F
ALBION         SUNNY     74  42  31 NW9       30.00F
OMAHA EPPLEY   SUNNY     75  42  30 NW10      29.96F
OFFUTT AFB     SUNNY     73  43  34 W9        29.96F
MILLARD        SUNNY     73  42  33 NW8       29.97F
LINCOLN        SUNNY     77  44  30 W7        29.99F
NEBRASKA CITY  SUNNY     74  25  16 NW6       29.99F
BEATRICE       SUNNY     77  47  34 N8        30.00F
FALLS CITY     SUNNY     74  48  39 CALM      29.98F

...NORTHERN KANSAS...

CITY           SKY/WX    TMP DP  RH WIND       PRES   REMARKS
GOODLAND       SUNNY     79  37  22 VRB6      30.14F
HILL CITY      SUNNY     81  49  32 N7        30.07F
NORTON         CLEAR     79  34  19 W8        30.06F
PHILLIPSBURG   SUNNY     79  41  25 W6        30.05F
SMITH CENTER   SUNNY     81  45  28 W6        30.05F
HAYS           SUNNY     81  46  30 NW8       30.06F
RUSSELL        SUNNY     79  50  36 N9        30.04F
CONCORDIA      SUNNY     79  46  31 W6        30.02F
SALINA         SUNNY     81  52  36 NW5       30.03F
TOPEKA         SUNNY     75  51  43 W6        30.00F



USA.gov is the U.S. government's official web portal to all federal, state and local government web resources and services.